Location: Malcolm X Square
(37.7810°N, 122.4297°W)
Time: 22:38:41
(UTC+00:00)

Cosmos 2056 Rocket - Pass Details

Date: 13 April 2024
Orbit: 739 x 799 km, 74.0° (Epoch: 20 May)

Event Time Altitude Azimuth Distance (km) Brightness Sun altitude
Rises 12:55:35 0° 334° (NNW) 3,293 6.7 -8.6°
Reaches altitude 10° 12:58:05 10° 327° (NNW) 2,366 5.9 -8.1°
Maximum altitude 13:03:07 41° 258° (WSW) 1,136 4.0 -7.2°
Drops below altitude 10° 13:08:09 10° 189° (S) 2,363 5.8 -6.2°
Sets 13:10:39 0° 183° (S) 3,288 6.6 -5.8°
